Weather History for KBGD - September, 2013

Change the Weather History Date:

Friday, September 27, 2013

  Actual Average Record
Temperature  
Mean Temperature 77 °F 68 °F  
Max Temperature 88 °F 80 °F 97 °F (1953)
Min Temperature 66 °F 56 °F 39 °F (1996)
Degree Days  
Heating Degree Days 0 2  
Month to date heating degree days 0 17  
Since 1 July heating degree days 0 18  
Cooling Degree Days 12 5  
Month to date cooling degree days 347 222  
Year to date cooling degree days 2158 1772  
Growing Degree Days 26 (Base 50)    
Moisture  
Dew Point 60 °F    
Average Humidity 63    
Maximum Humidity 84    
Minimum Humidity 42    
Precipitation  
Precipitation 0.25 in 0.07 in 1.18 in (1976)
Month to date precipitation 2.26 2.15  
Year to date precipitation 13.82 18.16  
Snow  
Snow 0.00 in - 0.00 in (2013)
Month to date snowfall 0.0  
Since 1 July snowfall 0.0  
Since 1 September snowfall 0.0  
Snow Depth 0.00 in    
Sea Level Pressure  
Sea Level Pressure 29.70 in    
Wind  
Wind Speed 13 mph (South)    
Max Wind Speed 23 mph    
Max Gust Speed 36 mph    
Visibility 9 miles    
Events Rain , Thunderstorm    
T = Trace of Precipitation, MM = Missing Value Source: NWS Daily Summary

Daily Weather History Graph

Daily Weather History Graph

Search for Another Location

Airport or City:

Trip Planner

Search our weather history database for the weather conditions in past years. The results will help you decide how hot, cold, wet, or windy it might be!

Date:

Astronomy

Sep. 27, 2013 Rise Set
Actual Time 7:37 AM CDT 7:34 PM CDT
Civil Twilight 7:12 AM CDT 8:00 PM CDT
Nautical Twilight 6:42 AM CDT 8:29 PM CDT
Astronomical Twilight 6:12 AM CDT 8:59 PM CDT
Moon 12:45 AM CDT (9/27) 3:03 PM CDT (9/27)
Length of Visible Light 12h 47m
Length of Day
11h 57m
Last Quarter, 45% of the Moon is Illuminated
Sep 27
Last Quarter
Oct 4
New
Oct 11
First Quarter
Oct 18
Full
Oct 26
Last Quarter

Hourly Weather History & Observations

Time (CDT) Temp. Heat Index Dew Point Humidity Pressure Visibility Wind Dir Wind Speed Gust Speed Precip Events Conditions
12:51 AM 75.0 °F - 55.0 °F 50% 29.68 in 10.0 mi South 18.4 mph 31.1 mph N/A   Scattered Clouds
1:51 AM 73.9 °F - 55.0 °F 52% 29.69 in 10.0 mi South 16.1 mph 31.1 mph N/A   Partly Cloudy
2:51 AM 72.0 °F - 55.0 °F 55% 29.71 in 10.0 mi South 13.8 mph 20.7 mph N/A   Scattered Clouds
3:51 AM 72.0 °F - 55.9 °F 57% 29.70 in 10.0 mi South 12.7 mph 23.0 mph N/A   Clear
4:51 AM 71.1 °F - 55.9 °F 59% 29.69 in 10.0 mi South 16.1 mph 24.2 mph N/A   Clear
5:51 AM 69.1 °F - 57.0 °F 65% 29.70 in 10.0 mi South 10.4 mph 16.1 mph N/A   Clear
6:51 AM 66.9 °F - 55.9 °F 68% 29.72 in 10.0 mi Variable 4.6 mph - N/A   Clear
7:51 AM 66.0 °F - 55.0 °F 68% 29.73 in 10.0 mi SSE 6.9 mph - N/A   Clear
8:51 AM 69.1 °F - 55.0 °F 61% 29.74 in 10.0 mi South 10.4 mph 17.3 mph N/A   Clear
9:51 AM 73.9 °F - 57.9 °F 57% 29.73 in 10.0 mi South 11.5 mph 20.7 mph N/A   Clear
10:51 AM 77.0 °F - 60.1 °F 56% 29.74 in 10.0 mi South 11.5 mph 20.7 mph N/A   Clear
11:51 AM 79.0 °F - 60.1 °F 52% 29.73 in 10.0 mi South 18.4 mph 26.5 mph N/A   Clear
12:51 PM 82.0 °F 82.1 °F 59.0 °F 45% 29.71 in 10.0 mi SSW 12.7 mph 23.0 mph N/A   Clear
1:51 PM 84.9 °F 84.4 °F 59.0 °F 41% 29.68 in 10.0 mi South 13.8 mph 20.7 mph N/A   Partly Cloudy
2:51 PM 86.0 °F 85.7 °F 60.1 °F 41% 29.66 in 10.0 mi South 12.7 mph 20.7 mph N/A   Scattered Clouds
3:51 PM 84.9 °F 85.0 °F 61.0 °F 44% 29.64 in 10.0 mi South 18.4 mph 26.5 mph N/A   Scattered Clouds
4:51 PM 84.9 °F 84.8 °F 60.1 °F 43% 29.63 in 10.0 mi South 20.7 mph 27.6 mph N/A   Partly Cloudy
5:39 PM 84.2 °F 84.4 °F 60.8 °F 45% 29.73 in 10.0 mi SSE 16.1 mph 25.3 mph N/A Thunderstorm Mostly Cloudy
5:51 PM 84.0 °F 84.4 °F 61.0 °F 46% 29.60 in 10.0 mi SSE 15.0 mph 25.3 mph N/A Thunderstorm Mostly Cloudy
6:09 PM 73.4 °F - 64.4 °F 73% 29.78 in 2.0 mi SW 23.0 mph 35.7 mph 0.10 in Rain , Thunderstorm Thunderstorms and Rain
6:16 PM 71.6 °F - 64.4 °F 78% 29.77 in 1.0 mi SSE 8.1 mph 35.7 mph 0.21 in Rain , Thunderstorm Heavy Thunderstorms and Rain
6:24 PM 73.4 °F - 66.2 °F 78% 29.76 in 3.0 mi SSW 12.7 mph 25.3 mph 0.22 in Rain , Thunderstorm Thunderstorms and Rain
6:51 PM 75.9 °F - 66.0 °F 71% 29.63 in 9.0 mi South 5.8 mph 16.1 mph 0.23 in Rain Light Rain
7:51 PM 77.0 °F - 66.9 °F 71% 29.64 in 10.0 mi SSE 11.5 mph 18.4 mph 0.00 in   Overcast
8:51 PM 73.9 °F - 64.9 °F 73% 29.65 in 10.0 mi SSE 12.7 mph 19.6 mph N/A   Overcast
9:51 PM 72.0 °F - 64.0 °F 76% 29.67 in 10.0 mi SE 18.4 mph 25.3 mph N/A   Mostly Cloudy
10:27 PM 71.6 °F - 64.4 °F 78% 29.79 in 10.0 mi SSE 13.8 mph 24.2 mph N/A Thunderstorm Partly Cloudy
10:51 PM 72.0 °F - 66.0 °F 81% 29.66 in 10.0 mi South 12.7 mph 23.0 mph N/A   Partly Cloudy
11:51 PM 73.0 °F - 64.9 °F 76% 29.68 in 10.0 mi SSW 16.1 mph 23.0 mph 0.01 in   Mostly Cloudy